GW1213 Weather Reports


time (UTC)temp
C
wind
direction
speed
KPH
gust
KPH
rain 1hr
cm
rain 24hr
cm
rain mn
cm
humidity
%
barometer
mb
20230208162538 15 84 3.2 4.8 0.00 0.00 0.00 46 1023.9
20230208162034 15 92 3.2 6.4 0.00 0.00 0.00 46 1023.8
20230208161558 15 134 3.2 8.0 0.00 0.00 0.00 48 1024.0
20230208161036 15 86 1.6 8.0 0.00 0.00 0.00 47 1023.9
20230208160537 15 92 1.6 6.4 0.00 0.00 0.00 47 1024.0
20230208160046 15 135 4.8 6.4 0.00 0.00 0.00 48 1023.8
20230208155538 15 123 1.6 8.0 0.00 0.00 0.00 48 1023.9
20230208155038 14 94 1.6 8.0 0.00 0.00 0.00 49 1024.0
20230208154546 13 92 1.6 6.4 0.00 0.00 0.00 51 1024.0
20230208154038 13 63 1.6 4.8 0.00 0.00 0.00 49 1023.9
20230208153534 13 209 0.0 4.8 0.00 0.00 0.00 50 1023.9
20230208153056 13 89 3.2 4.8 0.00 0.00 0.00 51 1023.9
20230208152537 12 83 0.0 4.8 0.00 0.00 0.00 52 1023.8
20230208152040 12 97 1.6 4.8 0.00 0.00 0.00 52 1023.8
20230208151558 12 88 1.6 4.8 0.00 0.00 0.00 52 1023.8
20230208151039 12 87 1.6 3.2 0.00 0.00 0.00 52 1023.8
20230208150535 12 96 1.6 3.2 0.00 0.00 0.00 54 1023.8
20230208150052 12 84 1.6 4.8 0.00 0.00 0.00 54 1023.7
20230208145535 11 78 1.6 4.8 0.00 0.00 0.00 57 1023.7
20230208145035 11 81 1.6 3.2 0.00 0.00 0.00 57 1023.6
20230208144550 11 0 0.0 4.8 0.00 0.00 0.00 60 1023.6
20230208144038 11 75 1.6 4.8 0.00 0.00 0.00 62 1023.6
20230208143540 10 80 1.6 4.8 0.00 0.00 0.00 61 1023.5
20230208143050 10 96 0.0 4.8 0.00 0.00 0.00 63 1023.5
20230208142537 10 76 0.0 1.6 0.00 0.00 0.00 66 1023.4
20230208142038 9 38 0.0 1.6 0.00 0.00 0.00 66 1023.4
20230208141555 9 67 0.0 1.6 0.00 0.00 0.00 69 1023.2
20230208141035 8 0 0.0 1.6 0.00 0.00 0.00 70 1023.2
20230208140538 8 0 0.0 3.2 0.00 0.00 0.00 71 1023.1
20230208140059 8 0 0.0 3.2 0.00 0.00 0.00 74 1023.3
20230208135537 8 279 0.0 3.2 0.00 0.00 0.00 72 1023.0
20230208135037 7 0 0.0 3.2 0.00 0.00 0.00 73 1023.0
20230208134548 7 107 0.0 1.6 0.00 0.00 0.00 77 1022.9
20230208134036 7 0 0.0 3.2 0.00 0.00 0.00 76 1022.9
20230208133535 7 108 0.0 3.2 0.00 0.00 0.00 77 1022.8
20230208133047 7 102 0.0 3.2 0.00 0.00 0.00 76 1022.7
20230208132538 7 0 0.0 3.2 0.00 0.00 0.00 76 1022.7
20230208132037 7 0 0.0 3.2 0.00 0.00 0.00 75 1022.7
20230208131551 7 244 1.6 3.2 0.00 0.00 0.00 75 1022.7
20230208131042 6 212 0.0 3.2 0.00 0.00 0.00 77 1022.5
20230208130538 6 264 0.0 1.6 0.00 0.00 0.00 77 1022.5
20230208130048 6 264 0.0 3.2 0.00 0.00 0.00 78 1022.4
20230208125539 6 0 0.0 3.2 0.00 0.00 0.00 77 1022.5
20230208125037 6 0 0.0 3.2 0.00 0.00 0.00 76 1022.3
20230208124553 6 0 0.0 1.6 0.00 0.00 0.00 76 1022.2
20230208124037 6 0 0.0 0.0 0.00 0.00 0.00 77 1022.0
20230208123537 6 0 0.0 0.0 0.00 0.00 0.00 76 1021.6
20230208123054 6 0 0.0 0.0 0.00 0.00 0.00 76 1021.5
20230208122535 6 0 0.0 0.0 0.00 0.00 0.00 76 1021.6
20230208122035 6 0 0.0 0.0 0.00 0.00 0.00 76 1021.4
20230208121614 6 0 0.0 0.0 0.00 0.00 0.00 76 1021.3
20230208121038 6 0 0.0 1.6 0.00 0.00 0.00 75 1021.0
20230208120541 6 0 0.0 1.6 0.00 0.00 0.00 76 1020.9
20230208120050 6 0 0.0 1.6 0.00 0.00 0.00 75 1021.0
20230208115538 7 0 0.0 1.6 0.00 0.00 0.00 74 1020.9
20230208115038 7 0 0.0 1.6 0.00 0.00 0.00 74 1020.9
20230208114553 7 0 0.0 0.0 0.00 0.00 0.00 74 1020.6
20230208114035 7 0 0.0 1.6 0.00 0.00 0.00 74 1020.6
20230208113538 7 0 0.0 1.6 0.00 0.00 0.00 74 1020.5
20230208113043 7 0 0.0 1.6 0.00 0.00 0.00 74 1020.5
20230208112538 7 0 0.0 1.6 0.00 0.00 0.00 73 1020.4
20230208112035 7 0 0.0 1.6 0.00 0.00 0.00 73 1020.4
20230208111551 7 0 0.0 1.6 0.00 0.00 0.00 74 1020.4
20230208111038 7 0 0.0 1.6 0.00 0.00 0.00 74 1020.4
20230208110535 7 0 0.0 1.6 0.00 0.00 0.00 73 1020.3
20230208110106 7 0 0.0 1.6 0.00 0.00 0.00 73 1020.2
20230208105541 6 0 0.0 1.6 0.00 0.00 0.00 74 1020.2
20230208105039 6 180 0.0 0.0 0.00 0.00 0.00 74 1020.1
20230208104552 6 0 0.0 1.6 0.00 0.00 0.00 74 1020.0
20230208104040 7 0 0.0 3.2 0.00 0.00 0.00 75 1020.0
20230208103535 7 0 0.0 3.2 0.00 0.00 0.00 74 1019.9
20230208103057 7 0 0.0 3.2 0.00 0.00 0.00 74 1020.0
20230208102534 7 0 0.0 1.6 0.00 0.00 0.00 70 1019.9
20230208102037 7 176 0.0 1.6 0.00 0.00 0.00 71 1019.8
20230208101548 7 0 0.0 1.6 0.00 0.00 0.00 69 1019.8
20230208101038 8 190 0.0 1.6 0.00 0.00 0.00 68 1019.8
20230208100536 8 0 0.0 1.6 0.00 0.00 0.00 65 1019.7
20230208100049 8 0 0.0 1.6 0.00 0.00 0.00 64 1019.7
20230208095538 8 0 0.0 0.0 0.00 0.00 0.00 63 1019.7
20230208095034 8 0 0.0 1.6 0.00 0.00 0.00 62 1019.7
20230208094546 9 0 0.0 1.6 0.00 0.00 0.00 61 1019.7
20230208094039 9 0 0.0 1.6 0.00 0.00 0.00 60 1019.6
20230208093542 9 0 0.0 1.6 0.00 0.00 0.00 60 1019.6
20230208093048 9 0 0.0 1.6 0.00 0.00 0.00 60 1019.6
20230208092537 10 0 0.0 1.6 0.00 0.00 0.00 60 1019.5
20230208092038 10 0 0.0 1.6 0.00 0.00 0.00 59 1019.4
20230208091559 10 0 0.0 3.2 0.00 0.00 0.00 58 1019.3
20230208091038 10 0 0.0 3.2 0.00 0.00 0.00 58 1019.4
20230208090538 10 0 0.0 1.6 0.00 0.00 0.00 59 1019.4
20230208090049 10 0 0.0 1.6 0.00 0.00 0.00 59 1019.4
20230208085537 10 0 0.0 1.6 0.00 0.00 0.00 58 1019.3
20230208085038 10 0 0.0 1.6 0.00 0.00 0.00 56 1019.2
20230208084550 10 0 0.0 0.0 0.00 0.00 0.00 56 1019.2
20230208084037 10 0 0.0 1.6 0.00 0.00 0.00 56 1019.1
20230208083538 10 0 0.0 1.6 0.00 0.00 0.00 56 1018.9
20230208083050 11 202 0.0 1.6 0.00 0.00 0.00 55 1018.9
20230208082537 11 0 0.0 1.6 0.00 0.00 0.00 55 1019.1
20230208082037 11 0 0.0 1.6 0.00 0.00 0.00 54 1019.2
20230208081543 11 0 0.0 1.6 0.00 0.00 0.00 53 1019.1
20230208081040 11 0 0.0 4.8 0.00 0.00 0.00 54 1019.1
20230208080538 11 222 0.0 4.8 0.00 0.00 0.00 53 1019.2
20230208080055 11 204 0.0 4.8 0.00 0.00 0.00 53 1019.2
20230208075540 11 0 0.0 6.4 0.00 0.00 0.00 53 1019.1
20230208075037 11 254 0.0 6.4 0.00 0.00 0.00 53 1019.1
20230208074552 11 0 0.0 1.6 0.00 0.00 0.00 53 1019.2
20230208074035 11 0 0.0 1.6 0.00 0.00 0.00 53 1019.1
20230208073534 11 0 0.0 1.6 0.00 0.00 0.00 53 1019.2
20230208073042 11 0 0.0 1.6 0.00 0.00 0.00 53 1019.3
20230208072537 11 185 0.0 1.6 0.00 0.00 0.00 52 1019.2
20230208072036 11 0 0.0 1.6 0.00 0.00 0.00 52 1019.4
20230208071556 11 0 0.0 3.2 0.00 0.00 0.00 51 1019.3
20230208071037 11 185 0.0 3.2 0.00 0.00 0.00 52 1019.3
20230208070537 11 202 0.0 3.2 0.00 0.00 0.00 51 1019.3
20230208070054 11 0 0.0 4.8 0.00 0.00 0.00 51 1019.3
20230208065537 11 0 0.0 4.8 0.00 0.00 0.00 51 1019.2
20230208065037 11 0 0.0 4.8 0.00 0.00 0.00 51 1019.3
20230208064550 11 0 0.0 4.8 0.00 0.00 0.00 51 1019.4
20230208064037 11 111 0.0 3.2 0.00 0.00 0.00 51 1019.4
20230208063537 12 0 0.0 3.2 0.00 0.00 0.00 51 1019.4
20230208063044 12 197 0.0 3.2 0.00 0.00 0.00 51 1019.5
20230208062539 12 0 0.0 3.2 0.00 0.00 0.00 50 1019.5
20230208062035 12 0 0.0 3.2 0.00 0.00 0.00 50 1019.4
20230208061552 12 0 0.0 3.2 0.00 0.00 0.00 50 1019.4
20230208061036 12 0 0.0 3.2 0.00 0.00 0.00 50 1019.4
20230208060537 12 0 0.0 3.2 0.00 0.00 0.00 49 1019.5
20230208060105 12 161 0.0 3.2 0.00 0.00 0.00 49 1019.5
20230208055537 12 0 0.0 3.2 0.00 0.00 0.00 49 1019.5
20230208055037 12 0 0.0 6.4 0.00 0.00 0.00 50 1019.5
20230208054558 12 0 0.0 6.4 0.00 0.00 0.00 50 1019.5
20230208054037 12 220 0.0 4.8 0.00 0.00 0.00 50 1019.6
20230208053537 12 217 1.6 11.3 0.00 0.00 0.00 49 1019.5
20230208053058 12 242 0.0 11.3 0.00 0.00 0.00 50 1019.5
20230208052539 12 261 1.6 11.3 0.00 0.00 0.00 51 1019.4
20230208052037 12 0 0.0 4.8 0.00 0.00 0.00 51 1019.4
20230208051556 12 0 0.0 4.8 0.00 0.00 0.00 51 1019.6
20230208051037 12 0 0.0 4.8 0.00 0.00 0.00 52 1019.5
20230208050536 12 0 0.0 4.8 0.00 0.00 0.00 51 1019.4
20230208050124 12 0 1.6 9.7 0.00 0.00 0.00 51 1019.5
20230208045537 12 0 0.0 9.7 0.00 0.00 0.00 52 1019.5
20230208045038 11 250 1.6 6.4 0.00 0.00 0.00 52 1019.6
20230208044616 11 0 1.6 6.4 0.00 0.00 0.00 52 1019.5
20230208044037 11 0 0.0 4.8 0.00 0.00 0.00 53 1019.5
20230208043540 11 0 0.0 6.4 0.00 0.00 0.00 53 1019.4
20230208043051 11 0 0.0 6.4 0.00 0.00 0.00 53 1019.5
20230208042537 11 237 1.6 6.4 0.00 0.00 0.00 53 1019.5
20230208042039 11 163 1.6 6.4 0.00 0.00 0.00 53 1019.6
20230208041606 11 0 0.0 6.4 0.00 0.00 0.00 53 1019.7
20230208041035 11 0 1.6 6.4 0.00 0.00 0.00 53 1019.7
20230208040535 11 0 0.0 8.0 0.00 0.00 0.00 54 1019.8
20230208040047 11 51 0.0 8.0 0.00 0.00 0.00 53 1019.7
20230208035535 11 205 0.0 11.3 0.00 0.00 0.00 54 1019.7
20230208035037 11 0 0.0 11.3 0.00 0.00 0.00 54 1019.8
20230208034603 11 244 1.6 11.3 0.00 0.00 0.00 53 1019.7
20230208034035 11 254 3.2 9.7 0.00 0.00 0.00 53 1019.8
20230208033535 11 146 1.6 9.7 0.00 0.00 0.00 53 1019.9
20230208033054 11 284 3.2 9.7 0.00 0.00 0.00 54 1020.0
20230208032538 11 0 3.2 9.7 0.00 0.00 0.00 54 1020.1
20230208032038 11 171 1.6 6.4 0.00 0.00 0.00 54 1020.1
20230208031540 11 213 0.0 6.4 0.00 0.00 0.00 55 1020.2
20230208031035 11 229 1.6 8.0 0.00 0.00 0.00 55 1020.5
20230208030537 11 0 1.6 8.0 0.00 0.00 0.00 56 1020.4
20230208030051 11 0 1.6 8.0 0.00 0.00 0.00 56 1020.4
20230208025537 11 270 0.0 8.0 0.00 0.00 0.00 56 1020.4
20230208025037 11 207 3.2 8.0 0.00 0.00 0.00 56 1020.4
20230208024623 11 0 0.0 8.0 0.00 0.00 0.00 57 1020.4
20230208024037 11 170 1.6 9.7 0.00 0.00 0.00 57 1020.5
20230208023537 11 188 3.2 11.3 0.00 0.00 0.00 57 1020.3
20230208023047 11 202 3.2 11.3 0.00 0.00 0.00 58 1020.4
20230208022539 10 145 1.6 11.3 0.00 0.00 0.00 58 1020.3
20230208022037 10 174 1.6 9.7 0.00 0.00 0.00 59 1020.3
20230208021556 10 159 1.6 8.0 0.00 0.00 0.00 59 1020.4
20230208021037 10 154 1.6 8.0 0.00 0.00 0.00 60 1020.3
20230208020540 10 158 1.6 9.7 0.00 0.00 0.00 60 1020.4
20230208020056 10 162 1.6 9.7 0.00 0.00 0.00 60 1020.4
20230208015538 10 0 0.0 6.4 0.00 0.00 0.00 61 1020.6
20230208015038 10 0 1.6 8.0 0.00 0.00 0.00 61 1020.5
20230208014554 9 153 1.6 8.0 0.00 0.00 0.00 61 1020.5
20230208014045 9 180 0.0 4.8 0.00 0.00 0.00 62 1020.6
20230208013538 8 165 0.0 4.8 0.00 0.00 0.00 63 1020.7
20230208013046 8 0 0.0 3.2 0.00 0.00 0.00 64 1020.8
20230208012537 8 0 0.0 3.2 0.00 0.00 0.00 64 1020.8
20230208012036 8 0 0.0 3.2 0.00 0.00 0.00 64 1020.9
20230208011553 8 0 0.0 1.6 0.00 0.00 0.00 65 1021.0
20230208011038 8 0 0.0 1.6 0.00 0.00 0.00 64 1021.1
20230208010537 8 0 0.0 0.0 0.00 0.00 0.00 64 1021.2
20230208010047 8 0 0.0 0.0 0.00 0.00 0.00 64 1021.3
20230208005537 8 0 0.0 1.6 0.00 0.00 0.00 62 1021.1
20230208005040 8 0 0.0 1.6 0.00 0.00 0.00 63 1021.0
20230208004556 8 0 0.0 1.6 0.00 0.00 0.00 62 1021.0
20230208004041 8 0 0.0 1.6 0.00 0.00 0.00 62 1020.9
20230208003538 8 0 0.0 1.6 0.00 0.00 0.00 62 1020.9
20230208003108 8 19 0.0 1.6 0.00 0.00 0.00 62 1021.1
20230208002538 8 0 0.0 0.0 0.00 0.00 0.00 61 1021.1
20230208002040 8 0 0.0 0.0 0.00 0.00 0.00 61 1021.1
20230208001559 8 0 0.0 0.0 0.00 0.00 0.00 61 1021.1
20230208001036 8 0 0.0 0.0 0.00 0.00 0.00 61 1021.1
20230208000535 8 0 0.0 0.0 0.00 0.00 0.00 60 1021.0
20230208000054 8 0 0.0 1.6 0.00 0.00 0.00 60 1021.0
20230207235539 9 0 0.0 1.6 0.00 0.00 0.00 60 1021.0
20230207235036 9 0 0.0 1.6 0.00 0.00 0.00 60 1021.0
20230207234549 9 0 0.0 1.6 0.00 0.00 0.00 59 1020.9
20230207234040 9 109 0.0 1.6 0.00 0.00 0.00 59 1020.7
20230207233540 9 0 0.0 1.6 0.00 0.00 0.00 58 1020.9
20230207233052 9 105 0.0 1.6 0.00 0.00 0.00 57 1020.9
20230207232537 10 0 0.0 1.6 0.00 0.00 0.00 56 1021.2
20230207232036 10 0 0.0 1.6 0.00 0.00 0.00 56 1021.0
20230207231556 10 0 0.0 1.6 0.00 0.00 0.00 56 1021.1
20230207231035 10 0 0.0 1.6 0.00 0.00 0.00 55 1021.2
20230207230535 10 0 0.0 1.6 0.00 0.00 0.00 54 1021.2
20230207230107 10 0 0.0 1.6 0.00 0.00 0.00 53 1021.1
20230207225538 11 0 0.0 1.6 0.00 0.00 0.00 52 1021.1
20230207225035 11 0 0.0 1.6 0.00 0.00 0.00 52 1021.2
20230207224552 11 0 0.0 3.2 0.00 0.00 0.00 51 1021.1
20230207224035 11 0 0.0 3.2 0.00 0.00 0.00 51 1021.2
20230207223538 11 107 1.6 6.4 0.00 0.00 0.00 51 1021.1
20230207223104 11 0 0.0 6.4 0.00 0.00 0.00 50 1021.3
20230207222540 11 167 1.6 6.4 0.00 0.00 0.00 50 1021.4
20230207222036 11 0 1.6 6.4 0.00 0.00 0.00 49 1021.4
20230207221549 11 0 1.6 8.0 0.00 0.00 0.00 49 1021.3
20230207221038 11 173 1.6 8.0 0.00 0.00 0.00 49 1021.4
20230207220538 11 155 1.6 9.7 0.00 0.00 0.00 49 1021.3
20230207220053 12 178 3.2 9.7 0.00 0.00 0.00 49 1021.5
20230207215540 12 166 1.6 11.3 0.00 0.00 0.00 48 1021.4
20230207215036 12 161 3.2 12.9 0.00 0.00 0.00 48 1021.5
20230207214553 12 157 4.8 17.7 0.00 0.00 0.00 47 1021.3
20230207214036 12 179 6.4 17.7 0.00 0.00 0.00 47 1021.5
20230207213537 12 188 3.2 12.9 0.00 0.00 0.00 47 1021.9
20230207213102 12 196 4.8 12.9 0.00 0.00 0.00 47 1022.1
20230207212537 12 188 3.2 19.3 0.00 0.00 0.00 47 1022.1
20230207212038 12 229 3.2 20.9 0.00 0.00 0.00 46 1021.9
20230207211555 12 194 8.0 20.9 0.00 0.00 0.00 46 1021.9
20230207211035 12 186 3.2 14.5 0.00 0.00 0.00 46 1021.9
20230207210538 12 182 4.8 14.5 0.00 0.00 0.00 46 1022.0
20230207210055 12 201 1.6 16.1 0.00 0.00 0.00 46 1022.1
20230207205536 12 253 3.2 16.1 0.00 0.00 0.00 46 1022.2
20230207205036 12 282 4.8 14.5 0.00 0.00 0.00 46 1022.2
20230207204559 12 140 4.8 17.7 0.00 0.00 0.00 45 1022.4
20230207204036 12 167 6.4 17.7 0.00 0.00 0.00 44 1022.4
20230207203536 12 186 4.8 16.1 0.00 0.00 0.00 45 1022.1
20230207203108 12 166 3.2 12.9 0.00 0.00 0.00 44 1022.3
20230207202537 13 188 3.2 16.1 0.00 0.00 0.00 44 1022.3
20230207202039 13 271 4.8 16.1 0.00 0.00 0.00 44 1022.6
20230207201558 13 190 4.8 16.1 0.00 0.00 0.00 44 1022.5
20230207201038 12 275 4.8 17.7 0.00 0.00 0.00 44 1022.4
20230207200536 12 242 6.4 17.7 0.00 0.00 0.00 44 1022.4
20230207200102 12 164 4.8 19.3 0.00 0.00 0.00 44 1022.3
20230207195534 12 84 4.8 27.4 0.00 0.00 0.00 44 1022.5
20230207195036 13 277 4.8 27.4 0.00 0.00 0.00 43 1022.6
20230207194554 13 291 4.8 19.3 0.00 0.00 0.00 44 1022.8
20230207194037 12 205 6.4 19.3 0.00 0.00 0.00 44 1022.8
20230207193537 12 250 4.8 17.7 0.00 0.00 0.00 44 1022.9
20230207193049 12 219 6.4 16.1 0.00 0.00 0.00 45 1023.0
20230207192537 12 243 6.4 17.7 0.00 0.00 0.00 45 1023.4
20230207192036 12 219 6.4 25.7 0.00 0.00 0.00 46 1023.3
20230207191547 12 161 9.7 25.7 0.00 0.00 0.00 45 1023.4
20230207191036 12 173 4.8 17.7 0.00 0.00 0.00 46 1023.4
20230207190536 11 307 4.8 19.3 0.00 0.00 0.00 47 1023.6
20230207190054 11 194 6.4 19.3 0.00 0.00 0.00 47 1023.6
20230207185537 11 161 3.2 12.9 0.00 0.00 0.00 48 1023.7
20230207185039 11 155 1.6 14.5 0.00 0.00 0.00 48 1023.9
20230207184557 11 35 4.8 14.5 0.00 0.00 0.00 48 1024.1
20230207184036 11 159 3.2 16.1 0.00 0.00 0.00 48 1024.1
20230207183537 11 178 3.2 16.1 0.00 0.00 0.00 49 1024.2
20230207183050 11 266 0.0 11.3 0.00 0.00 0.00 50 1023.9
20230207182537 11 152 3.2 20.9 0.00 0.00 0.00 49 1024.1
20230207182036 11 178 3.2 20.9 0.00 0.00 0.00 51 1024.3
20230207181603 10 186 6.4 16.1 0.00 0.00 0.00 50 1024.3
20230207181037 10 224 4.8 14.5 0.00 0.00 0.00 50 1024.4
20230207180538 10 281 4.8 14.5 0.00 0.00 0.00 51 1024.5
20230207180102 10 151 3.2 14.5 0.00 0.00 0.00 52 1024.6
20230207175535 10 105 3.2 12.9 0.00 0.00 0.00 52 1024.7
20230207175037 10 23 4.8 17.7 0.00 0.00 0.00 51 1024.9
20230207174611 10 216 4.8 17.7 0.00 0.00 0.00 51 1025.2
20230207174036 10 182 3.2 12.9 0.00 0.00 0.00 52 1025.3
20230207173537 10 198 4.8 12.9 0.00 0.00 0.00 50 1025.5
20230207173045 10 235 1.6 12.9 0.00 0.00 0.00 52 1025.5
20230207172536 10 188 4.8 16.1 0.00 0.00 0.00 52 1025.5
20230207172036 10 236 6.4 17.7 0.00 0.00 0.00 52 1025.6
20230207171551 10 135 1.6 19.3 0.00 0.00 0.00 52 1025.8
20230207171036 10 169 4.8 19.3 0.00 0.00 0.00 52 1025.9
20230207170537 9 140 3.2 14.5 0.00 0.00 0.00 53 1025.9
20230207170103 8 0 4.8 16.1 0.00 0.00 0.00 54 1026.2
20230207165535 8 144 6.4 16.1 0.00 0.00 0.00 55 1026.4
20230207165037 8 60 4.8 16.1 0.00 0.00 0.00 54 1026.4
20230207164556 8 235 3.2 17.7 0.00 0.00 0.00 56 1026.5
20230207164035 8 166 6.4 17.7 0.00 0.00 0.00 56 1026.7
20230207163537 8 184 6.4 16.1 0.00 0.00 0.00 58 1026.8
20230207163102 8 162 3.2 14.5 0.00 0.00 0.00 58 1027.0